CAPE
0 0 0 0 10 14 2 5 5 5 2 0 0 0 0 0 0 0 0 0 0 0 0 0 0 0 0 0 0 0 0 0 0 0 0 0 0 0 0 0 0 0 0 0 0 0 0 0 0 0 0 0 0 0
1 0 0 0 13 17 2 4 6 5 2 0 0 0 0 0 0 0 0 0 0 0 0 0 0 0 0 0 0 0 0 0 0 0 0 0 0 0 0 0 0 0 0 0 0 0 0 0 0 0 0 0 0 0
0 3 1 0 3 30 1 3 4 5 2 0 0 0 0 0 0 0 0 0 0 0 0 0 0 0 0 0 0 0 0 0 0 0 0 0 0 0 0 0 0 0 0 0 0 0 0 0 0 0 0 0 0 0
0 3 3 15 18 18 2 4 3 5 3 0 0 0 0 0 0 0 0 0 0 0 0 0 0 0 0 0 0 0 0 0 0 0 0 0 0 0 0 0 0 0 0 0 0 0 0 0 0 0 0 0 0 0
0 0 1 10 11 17 2 3 5 6 4 3 0 0 0 0 0 0 0 0 0 0 0 0 0 0 0 0 0 0 0 0 0 0 0 0 0 0 0 0 0 0 0 0 0 0 0 0 0 0 0 0 0 0
1 0 0 3 13 18 2 2 5 7 4 7 2 0 0 0 0 0 0 0 0 0 0 0 0 0 0 0 0 0 0 0 0 0 0 0 0 0 0 0 0 0 0 0 0 0 0 0 0 0 0 0 0 0
3 1 0 3 8 10 2 4 7 10 6 4 3 0 0 0 0 0 0 0 0 0 0 0 0 0 0 0 0 0 0 0 0 0 0 0 0 0 0 0 0 0 0 0 0 0 0 0 0 0 0 0 0 0
3 4 0 10 20 2 3 5 12 11 10 8 7 2 0 0 0 0 0 0 0 0 0 0 0 0 0 0 0 0 0 0 0 0 0 0 0 0 0 0 0 0 0 0 0 0 0 0 0 0 0 0 0 0
7 5 2 14 11 2 5 5 11 12 11 8 2 0 0 0 0 0 0 0 0 0 0 0 0 0 0 0 0 0 0 0 0 0 0 0 0 0 0 0 0 0 0 0 0 0 0 0 0 0 0 0 0 0
4 1 2 31 1 3 4 8 16 12 10 4 0 0 0 0 1 0 0 0 0 0 0 0 0 0 0 0 0 0 0 0 0 0 0 0 0 0 0 0 0 0 0 0 0 0 0 0 0 0 0 0 0 0
2 0 9 9 2 4 9 14 17 14 0 0 0 0 0 0 0 0 0 0 0 0 0 0 0 0 0 0 0 0 0 0 0 0 0 0 0 0 0 0 0 0 0 0 0 0 0 0 0 0 0 0 0 0
21 4 3 2 4 9 9 13 11 0 0 0 0 0 0 0 0 0 0 0 0 0 0 0 0 0 0 0 0 0 0 0 0 0 0 0 0 0 0 0 0 0 0 0 0 0 0 0 0 0 0 0 0 0
4 14 2 3 7 10 12 14 0 1 0 0 0 0 0 0 0 0 0 0 0 0 0 0 0 0 0 0 0 0 0 0 0 0 0 0 0 0 0 0 0 0 0 0 0 0 0 0 0 0 0 0 0 0
3 1 1 4 11 11 7 6 1 0 0 0 0 0 0 0 0 0 0 0 0 0 0 0 0 0 0 0 0 0 0 0 0 0 0 0 0 0 0 0 0 0 0 0 0 0 0 0 0 0 0 0 0 0
4 2 7 9 7 6 9 4 1 0 0 0 0 0 0 0 0 0 0 0 0 0 0 0 0 0 0 0 0 0 0 0 0 0 0 0 0 0 0 0 0 0 0 0 0 0 0 0 0 0 0 0 0 0
3 7 3 6 10 11 5 0 0 0 0 0 0 0 0 0 0 0 0 0 0 0 0 0 0 0 0 0 0 0 0 0 0 0 0 0 0 0 0 0 0 0 0 0 0 0 0 0 0 0 0 0 0 0
0 1 9 13 8 3 1 0 0 0 0 0 0 0 0 0 0 0 0 0 0 0 0 0 0 0 0 0 0 0 0 0 0 0 0 0 0 0 0 0 0 0 0 0 0 0 0 0 0 0 0 0 0 0
0 6 8 7 0 0 0 0 0 0 0 0 0 0 0 0 0 0 0 0 0 0 0 0 0 0 0 0 0 0 0 0 0 0 0 0 0 0 0 0 0 0 0 0 0 0 0 0 0 0 0 0 0 0
3 6 4 0 0 0 0 0 0 0 0 0 0 0 0 0 0 0 0 0 0 0 0 0 0 0 0 0 0 0 0 0 0 0 0 0 0 0 0 0 0 0 0 0 0 0 0 0 0 0 0 0 0 0
9 2 1 0 0 0 0 0 0 0 0 0 0 0 0 0 0 0 0 0 0 0 0 0 0 0 0 0 0 0 0 0 0 0 0 0 0 0 0 0 0 0 0 0 0 0 0 0 0 0 0 0 0 0
1 1 0 0 0 0 0 0 0 0 0 0 0 0 0 0 0 0 0 0 0 0 0 0 0 0 0 0 0 0 0 0 0 0 0 0 0 0 0 0 0 0 0 0 0 0 0 0 0 0 0 0 0 0
0 0 0 0 0 0 0 0 0 0 0 0 0 0 0 0 0 0 0 0 0 0 0 0 0 0 0 0 0 0 0 0 0 0 0 0 0 0 0 0 0 0 0 0 0 0 0 0 0 0 0 0 0 0
0 0 0 0 0 0 0 0 0 0 0 0 0 0 0 0 0 0 0 0 0 0 0 0 0 0 0 0 0 0 0 0 0 0 0 0 0 0 0 0 0 0 0 0 0 0 0 0 0 0 0 0 0 0
0 0 0 0 0 0 0 0 0 0 0 0 0 0 0 0 0 0 0 0 0 0 0 0 0 0 0 0 0 0 0 0 0 0 0 0 0 0 0 0 0 0 0 0 0 0 0 0 0 0 0 0 0 0
0 0 0 0 0 0 0 0 0 0 0 0 0 0 0 0 0 0 0 0 0 0 0 0 0 0 0 0 0 0 0 0 0 0 0 0 0 0 0 0 0 0 0 0 0 0 0 0 0 0 0 0 0 0
0 0 0 0 0 0 0 0 0 0 0 0 0 0 0 0 0 0 0 0 0 0 0 0 0 0 0 0 0 0 0 0 0 0 0 0 0 0 0 0 0 0 0 0 0 0 0 0 0 0 0 0 0 0
0 0 0 0 0 0 0 0 0 0 0 0 0 0 0 0 0 0 0 0 0 0 0 0 0 0 0 0 0 0 0 0 0 0 0 0 0 0 0 0 0 0 0 0 0 0 0 0 0 0 0 0 0 0
0 0 0 0 0 0 0 0 0 0 0 0 0 0 0 0 0 0 0 0 0 0 0 0 0 0 0 0 0 0 0 0 0 0 0 0 0 0 0 0 0 0 0 0 0 0 0 0 0 0 0 0 0 0
0 0 0 0 0 0 0 0 0 0 0 0 0 0 0 0 0 0 0 0 0 0 0 0 0 0 0 0 0 0 0 0 0 0 0 0 0 0 0 0 0 0 0 0 0 0 0 0 0 0 0 0 0 0
0 0 0 0 0 0 0 0 0 0 0 0 0 0 0 0 0 0 0 0 0 0 0 0 0 0 0 0 0 0 0 0 0 0 0 0 0 0 0 0 0 0 0 0 0 0 0 0 0 0 0 0 0 0
0 0 0 0 0 0 0 0 0 0 0 0 0 0 0 0 0 0 0 0 0 0 0 0 0 0 0 0 0 0 0 0 0 0 0 0 0 0 0 0 0 0 0 0 0 0 0 0 0 0 0 0 0 0
0 0 0 0 0 0 0 0 0 0 0 0 0 0 0 0 0 0 0 0 0 0 0 0 0 0 0 0 0 0 0 0 0 0 0 0 0 0 0 0 0 0 0 0 0 0 0 0 0 0 0 0 0 0
0 0 0 0 0 0 0 0 0 0 0 0 0 0 0 0 0 0 0 0 0 0 0 0 0 0 0 0 0 0 0 0 0 0 0 0 0 0 0 0 0 0 0 0 0 0 0 0 0 0 0 0 0 0
CIN
-0 -0 -0 -0 -0 -1 -0 -0 -0 -0 -0 -0 -0 -0 -0 -0 -0 -0 -0 -0 -0 -0 -0 -0 -0 -0 -0 -0 -0 -0 -0 -0 -0 -0 -0 -0 -0 -0 -0 -0 -0 -0 -0 -0 -0 -0 -0 -0 -0 -0 -0 -0 -0 -0
-1 -0 -0 -0 -0 -1 -0 -0 -0 -0 -0 -0 -0 -0 -0 -0 -0 -0 -0 -0 -0 -0 -0 -0 -0 -0 -0 -0 -0 -0 -0 -0 -0 -0 -0 -0 -0 -0 -0 -0 -0 -0 -0 -0 -0 -0 -0 -0 -0 -0 -0 -0 -0 -0
-0 -1 -0 -0 -1 -0 -0 -0 -0 -0 -0 -0 -0 -0 -0 -0 -0 -0 -0 -0 -0 -0 -0 -0 -0 -0 -0 -0 -0 -0 -0 -0 -0 -0 -0 -0 -0 -0 -0 -0 -0 -0 -0 -0 -0 -0 -0 -0 -0 -0 -0 -0 -0 -0
-0 -1 -3 -3 -2 -8 -1 -0 -0 -0 -0 -0 -0 -0 -0 -0 -0 -0 -0 -0 -0 -0 -0 -0 -0 -0 -0 -0 -0 -0 -0 -0 -0 -0 -0 -0 -0 -0 -0 -0 -0 -0 -0 -0 -0 -0 -0 -0 -0 -0 -0 -0 -0 -0
-0 -0 -0 -5 -9 -9 -1 -0 -0 -0 -0 -0 -0 -0 -0 -0 -0 -0 -0 -0 -0 -0 -0 -0 -0 -0 -0 -0 -0 -0 -0 -0 -0 -0 -0 -0 -0 -0 -0 -0 -0 -0 -0 -0 -0 -0 -0 -0 -0 -0 -0 -0 -0 -0
-2 -0 -0 -10 -22 -11 -0 -0 -0 -0 -0 -0 -0 -0 -0 -0 -0 -0 -0 -0 -0 -0 -0 -0 -0 -0 -0 -0 -0 -0 -0 -0 -0 -0 -0 -0 -0 -0 -0 -0 -0 -0 -0 -0 -0 -0 -0 -0 -0 -0 -0 -0 -0 -0
-1 -2 -0 -2 -22 -20 -0 -0 -0 -0 -0 -0 -0 -0 -0 -0 -0 -0 -0 -0 -0 -0 -0 -0 -0 -0 -0 -0 -0 -0 -0 -0 -0 -0 -0 -0 -0 -0 -0 -0 -0 -0 -0 -0 -0 -0 -0 -0 -0 -0 -0 -0 -0 -0
-2 -3 -0 -2 -1 -6 -0 -0 -0 -0 -0 -0 -0 -0 -0 -0 -0 -0 -0 -0 -0 -0 -0 -0 -0 -0 -0 -0 -0 -0 -0 -0 -0 -0 -0 -0 -0 -0 -0 -0 -0 -0 -0 -0 -0 -0 -0 -0 -0 -0 -0 -0 -0 -0
-2 -4 -5 -2 -4 -0 -0 -0 -0 -0 -0 -0 -0 -0 -0 -0 -0 -0 -0 -0 -0 -0 -0 -0 -0 -0 -0 -0 -0 -0 -0 -0 -0 -0 -0 -0 -0 -0 -0 -0 -0 -0 -0 -0 -0 -0 -0 -0 -0 -0 -0 -0 -0 -0
-4 -11 -20 -0 -0 -0 -0 -0 -0 -0 -0 -0 -0 -0 -0 -0 -0 -0 -0 -0 -0 -0 -0 -0 -0 -0 -0 -0 -0 -0 -0 -0 -0 -0 -0 -0 -0 -0 -0 -0 -0 -0 -0 -0 -0 -0 -0 -0 -0 -0 -0 -0 -0 -0
-5 -7 -15 -4 -0 -0 -0 -0 -0 -0 -0 -0 -0 -0 -0 -0 -0 -0 -0 -0 -0 -0 -0 -0 -0 -0 -0 -0 -0 -0 -0 -0 -0 -0 -0 -0 -0 -0 -0 -0 -0 -0 -0 -0 -0 -0 -0 -0 -0 -0 -0 -0 -0 -0
-0 -5 -3 -0 -0 -0 -0 -0 -0 -0 -0 -0 -0 -0 -0 -0 -0 -0 -0 -0 -0 -0 -0 -0 -0 -0 -0 -0 -0 -0 -0 -0 -0 -0 -0 -0 -0 -0 -0 -0 -0 -0 -0 -0 -0 -0 -0 -0 -0 -0 -0 -0 -0 -0
-6 -11 -0 -0 -0 -0 -0 -0 -0 -0 -0 -0 -0 -0 -0 -0 -0 -0 -0 -0 -0 -0 -0 -0 -0 -0 -0 -0 -0 -0 -0 -0 -0 -0 -0 -0 -0 -0 -0 -0 -0 -0 -0 -0 -0 -0 -0 -0 -0 -0 -0 -0 -0 -0
-2 -0 -0 -0 -0 -0 -0 -0 -0 -0 -0 -0 -0 -0 -0 -0 -0 -0 -0 -0 -0 -0 -0 -0 -0 -0 -0 -0 -0 -0 -0 -0 -0 -0 -0 -0 -0 -0 -0 -0 -0 -0 -0 -0 -0 -0 -0 -0 -0 -0 -0 -0 -0 -0
-0 -0 -0 -0 -0 -0 -0 -0 -0 -0 -0 -0 -0 -0 -0 -0 -0 -0 -0 -0 -0 -0 -0 -0 -0 -0 -0 -0 -0 -0 -0 -0 -0 -0 -0 -0 -0 -0 -0 -0 -0 -0 -0 -0 -0 -0 -0 -0 -0 -0 -0 -0 -0 -0
-0 -0 -0 -0 -0 -0 -0 -0 -0 -0 -0 -0 -0 -0 -0 -0 -0 -0 -0 -0 -0 -0 -0 -0 -0 -0 -0 -0 -0 -0 -0 -0 -0 -0 -0 -0 -0 -0 -0 -0 -0 -0 -0 -0 -0 -0 -0 -0 -0 -0 -0 -0 -0 -0
-0 -0 -0 -0 -0 -0 -0 -0 -0 -0 -0 -0 -0 -0 -0 -0 -0 -0 -0 -0 -0 -0 -0 -0 -0 -0 -0 -0 -0 -0 -0 -0 -0 -0 -0 -0 -0 -0 -0 -0 -0 -0 -0 -0 -0 -0 -0 -0 -0 -0 -0 -0 -0 -0
-0 -0 -0 -0 -0 -0 -0 -0 -0 -0 -0 -0 -0 -0 -0 -0 -0 -0 -0 -0 -0 -0 -0 -0 -0 -0 -0 -0 -0 -0 -0 -0 -0 -0 -0 -0 -0 -0 -0 -0 -0 -0 -0 -0 -0 -0 -0 -0 -0 -0 -0 -0 -0 -0
-0 -0 -0 -0 -0 -0 -0 -0 -0 -0 -0 -0 -0 -0 -0 -0 -0 -0 -0 -0 -0 -0 -0 -0 -0 -0 -0 -0 -0 -0 -0 -0 -0 -0 -0 -0 -0 -0 -0 -0 -0 -0 -0 -0 -0 -0 -0 -0 -0 -0 -0 -0 -0 -0
-0 -0 -0 -0 -0 -0 -0 -0 -0 -0 -0 -0 -0 -0 -0 -0 -0 -0 -0 -0 -0 -0 -0 -0 -0 -0 -0 -0 -0 -0 -0 -0 -0 -0 -0 -0 -0 -0 -0 -0 -0 -0 -0 -0 -0 -0 -0 -0 -0 -0 -0 -0 -0 -0
-0 -0 -0 -0 -0 -0 -0 -0 -0 -0 -0 -0 -0 -0 -0 -0 -0 -0 -0 -0 -0 -0 -0 -0 -0 -0 -0 -0 -0 -0 -0 -0 -0 -0 -0 -0 -0 -0 -0 -0 -0 -0 -0 -0 -0 -0 -0 -0 -0 -0 -0 -0 -0 -0
-0 -0 -0 -0 -0 -0 -0 -0 -0 -0 -0 -0 -0 -0 -0 -0 -0 -0 -0 -0 -0 -0 -0 -0 -0 -0 -0 -0 -0 -0 -0 -0 -0 -0 -0 -0 -0 -0 -0 -0 -0 -0 -0 -0 -0 -0 -0 -0 -0 -0 -0 -0 -0 -0
-0 -0 -0 -0 -0 -0 -0 -0 -0 -0 -0 -0 -0 -0 -0 -0 -0 -0 -0 -0 -0 -0 -0 -0 -0 -0 -0 -0 -0 -0 -0 -0 -0 -0 -0 -0 -0 -0 -0 -0 -0 -0 -0 -0 -0 -0 -0 -0 -0 -0 -0 -0 -0 -0
-0 -0 -0 -0 -0 -0 -0 -0 -0 -0 -0 -0 -0 -0 -0 -0 -0 -0 -0 -0 -0 -0 -0 -0 -0 -0 -0 -0 -0 -0 -0 -0 -0 -0 -0 -0 -0 -0 -0 -0 -0 -0 -0 -0 -0 -0 -0 -0 -0 -0 -0 -0 -0 -0
-0 -0 -0 -0 -0 -0 -0 -0 -0 -0 -0 -0 -0 -0 -0 -0 -0 -0 -0 -0 -0 -0 -0 -0 -0 -0 -0 -0 -0 -0 -0 -0 -0 -0 -0 -0 -0 -0 -0 -0 -0 -0 -0 -0 -0 -0 -0 -0 -0 -0 -0 -0 -0 -0
-0 -0 -0 -0 -0 -0 -0 -0 -0 -0 -0 -0 -0 -0 -0 -0 -0 -0 -0 -0 -0 -0 -0 -0 -0 -0 -0 -0 -0 -0 -0 -0 -0 -0 -0 -0 -0 -0 -0 -0 -0 -0 -0 -0 -0 -0 -0 -0 -0 -0 -0 -0 -0 -0
-0 -0 -0 -0 -0 -0 -0 -0 -0 -0 -0 -0 -0 -0 -0 -0 -0 -0 -0 -0 -0 -0 -0 -0 -0 -0 -0 -0 -0 -0 -0 -0 -0 -0 -0 -0 -0 -0 -0 -0 -0 -0 -0 -0 -0 -0 -0 -0 -0 -0 -0 -0 -0 -0
-0 -0 -0 -0 -0 -0 -0 -0 -0 -0 -0 -0 -0 -0 -0 -0 -0 -0 -0 -0 -0 -0 -0 -0 -0 -0 -0 -0 -0 -0 -0 -0 -0 -0 -0 -0 -0 -0 -0 -0 -0 -0 -0 -0 -0 -0 -0 -0 -0 -0 -0 -0 -0 -0
-0 -0 -0 -0 -0 -0 -0 -0 -0 -0 -0 -0 -0 -0 -0 -0 -0 -0 -0 -0 -0 -0 -0 -0 -0 -0 -0 -0 -0 -0 -0 -0 -0 -0 -0 -0 -0 -0 -0 -0 -0 -0 -0 -0 -0 -0 -0 -0 -0 -0 -0 -0 -0 -0
-0 -0 -0 -0 -0 -0 -0 -0 -0 -0 -0 -0 -0 -0 -0 -0 -0 -0 -0 -0 -0 -0 -0 -0 -0 -0 -0 -0 -0 -0 -0 -0 -0 -0 -0 -0 -0 -0 -0 -0 -0 -0 -0 -0 -0 -0 -0 -0 -0 -0 -0 -0 -0 -0
-0 -0 -0 -0 -0 -0 -0 -0 -0 -0 -0 -0 -0 -0 -0 -0 -0 -0 -0 -0 -0 -0 -0 -0 -0 -0 -0 -0 -0 -0 -0 -0 -0 -0 -0 -0 -0 -0 -0 -0 -0 -0 -0 -0 -0 -0 -0 -0 -0 -0 -0 -0 -0 -0
-0 -0 -0 -0 -0 -0 -0 -0 -0 -0 -0 -0 -0 -0 -0 -0 -0 -0 -0 -0 -0 -0 -0 -0 -0 -0 -0 -0 -0 -0 -0 -0 -0 -0 -0 -0 -0 -0 -0 -0 -0 -0 -0 -0 -0 -0 -0 -0 -0 -0 -0 -0 -0 -0
-0 -0 -0 -0 -0 -0 -0 -0 -0 -0 -0 -0 -0 -0 -0 -0 -0 -0 -0 -0 -0 -0 -0 -0 -0 -0 -0 -0 -0 -0 -0 -0 -0 -0 -0 -0 -0 -0 -0 -0 -0 -0 -0 -0 -0 -0 -0 -0 -0 -0 -0 -0 -0 -0
Wind_Speed
39 38 37 38 35 28 23 20 19 16 14 13 14 13 13 12 13 17 17 18 18 20 17 16 16 16 16 18 22 20 23 22 23 25 28 30 30 29 31 29 30 30 31 31 29 32 33 17 22 20 24 29 31 24
41 40 37 37 37 33 20 17 15 12 11 11 9 11 12 12 12 13 18 16 16 18 16 14 16 17 17 17 17 19 23 22 20 24 25 26 29 27 30 36 23 30 24 27 24 26 18 19 20 23 23 32 29 21
42 41 40 39 39 31 22 18 14 13 9 9 7 8 9 11 12 14 11 11 14 15 16 15 16 17 18 19 17 20 20 17 19 19 22 24 28 25 31 29 26 22 19 24 26 20 18 20 19 20 30 34 29 24
43 42 38 38 39 31 21 18 14 14 11 9 7 8 10 11 10 10 10 11 13 14 17 15 14 16 18 18 19 18 17 18 18 19 23 25 26 21 27 26 24 23 20 23 23 19 20 18 17 29 34 26 33 34
41 40 37 36 37 30 19 19 14 12 10 8 5 5 7 8 8 9 11 14 13 16 16 14 13 16 17 17 19 19 18 18 20 23 24 24 22 23 24 23 24 19 21 24 25 20 18 17 24 33 30 33 34 34
42 39 37 35 33 26 18 16 14 9 8 7 4 3 3 5 7 11 15 15 13 13 16 16 15 15 17 17 18 19 19 19 21 22 23 22 21 22 26 27 21 16 16 16 19 18 16 14 27 25 31 33 33 32
41 39 36 33 32 23 19 16 15 11 6 4 1 1 4 6 12 14 15 11 10 12 16 17 16 14 15 16 18 19 18 19 21 22 22 21 21 21 24 27 20 17 17 16 15 17 17 17 24 32 31 31 32 32
40 38 35 32 28 22 21 17 14 9 6 5 4 3 6 9 8 14 15 12 12 14 15 16 17 14 16 18 19 18 19 20 22 21 21 22 22 22 25 20 19 19 18 16 16 14 16 18 25 30 28 30 31 31
36 35 34 31 25 20 21 18 15 11 9 5 5 4 11 14 16 11 9 13 15 15 16 15 15 18 16 18 19 19 20 22 21 21 22 22 24 25 21 19 20 19 19 18 16 16 18 20 26 28 29 29 30 30
34 33 33 29 21 22 21 19 17 14 11 10 3 16 16 14 8 8 14 14 17 17 16 15 15 18 18 18 19 20 21 22 23 21 22 24 24 18 16 16 17 16 15 16 18 19 19 22 28 29 29 28 29 30
33 32 30 21 21 23 22 21 18 16 7 8 15 17 9 8 12 15 16 16 16 15 15 14 15 17 18 19 20 20 22 22 24 24 26 27 27 20 16 16 15 14 14 14 14 15 17 19 29 30 29 29 29 29
30 31 20 18 22 25 24 22 20 9 11 11 6 5 8 12 15 15 16 15 14 14 12 13 15 17 17 18 20 21 22 21 25 24 26 28 23 17 17 16 15 13 13 13 13 14 17 21 25 26 28 29 28 28
30 30 18 22 26 26 24 21 11 8 7 4 12 12 13 14 15 16 15 15 14 9 10 11 14 17 18 19 21 22 23 24 22 26 28 24 20 17 17 15 14 13 12 12 13 14 18 22 25 26 28 28 28 28
29 18 23 26 26 25 21 15 16 11 10 14 14 13 15 16 16 13 12 11 11 10 10 12 15 18 18 20 21 23 22 23 27 31 29 23 19 18 16 15 14 13 12 12 13 14 17 22 26 27 27 28 28 28
18 24 27 28 28 23 22 18 11 8 11 14 14 15 15 11 11 8 8 9 10 11 11 14 18 18 20 21 22 22 24 26 26 28 23 20 18 17 16 15 14 13 12 13 13 14 17 21 26 27 27 28 28 28
26 27 24 29 26 24 18 11 10 11 12 12 13 11 7 6 5 6 6 8 10 11 13 16 18 19 20 20 23 23 25 27 27 22 19 18 18 16 15 14 13 12 12 12 13 13 15 19 24 27 27 27 27 27
24 19 30 32 29 21 13 5 8 13 12 13 11 8 10 6 4 5 7 8 10 10 14 15 18 20 19 21 23 21 25 23 21 19 18 17 17 16 14 14 13 12 12 12 14 14 14 18 21 24 27 27 27 27
18 30 33 32 27 14 9 11 10 11 10 11 10 8 8 6 7 6 8 10 9 11 13 15 16 18 20 21 23 20 18 18 17 18 18 17 15 14 13 13 13 12 12 13 13 14 15 15 19 23 25 26 27 26
33 34 33 32 17 8 12 14 14 10 10 8 6 5 5 6 8 8 8 9 11 12 14 16 17 18 20 18 19 18 18 17 19 19 18 16 14 14 13 12 12 12 12 13 15 15 15 14 13 18 22 24 25 26
34 35 31 17 16 13 12 13 11 11 10 7 4 3 4 5 6 7 8 9 10 12 14 16 16 16 17 16 15 17 16 16 18 20 19 17 14 13 13 12 12 12 13 15 16 16 15 15 15 15 16 20 24 25
28 22 16 14 11 8 10 11 11 11 5 7 3 5 5 4 5 6 7 10 10 12 14 12 13 14 14 16 15 15 16 15 17 18 19 18 15 14 14 13 12 12 13 15 17 19 18 16 15 16 17 16 18 22
19 18 19 16 14 13 12 13 8 7 10 5 2 6 4 3 4 6 8 8 11 11 11 12 12 12 13 13 13 12 14 14 16 16 16 16 16 15 15 15 14 12 12 14 17 20 19 17 15 14 15 17 17 18
17 20 16 14 12 14 12 14 11 11 8 3 6 7 7 6 5 7 9 9 10 9 8 9 12 12 12 12 12 12 11 14 15 15 15 15 14 14 14 14 13 12 12 14 17 19 18 17 15 15 15 17 17 18
16 16 16 16 15 14 14 15 12 9 9 10 8 7 5 6 6 8 11 11 9 10 8 9 11 13 14 13 11 12 12 13 14 15 15 16 15 14 14 14 13 12 11 13 16 18 18 17 16 16 16 16 16 16
18 17 18 16 17 12 10 9 11 11 10 8 5 6 5 6 7 9 13 12 8 8 9 9 10 11 12 13 14 14 13 14 15 16 17 14 14 15 15 14 14 13 13 12 13 15 16 16 16 16 16 15 15 16
18 19 19 17 11 10 5 5 8 7 5 7 7 5 7 7 9 12 12 10 9 8 9 9 10 10 11 11 15 16 17 14 16 17 17 15 14 15 16 16 16 16 15 14 14 14 15 15 16 16 16 15 16 18
17 17 16 15 12 7 9 9 6 8 6 4 3 3 7 10 10 12 12 11 12 11 11 10 9 12 15 16 15 16 17 16 16 17 17 16 16 15 15 15 15 15 15 16 15 14 14 14 15 15 16 15 15 16
15 15 9 9 10 11 9 9 7 5 6 5 5 6 7 8 11 12 12 11 12 13 14 14 13 14 15 16 17 16 17 16 17 17 18 17 17 16 15 14 14 14 16 16 14 13 12 12 13 15 16 15 16 17
14 11 10 10 9 10 11 10 8 7 6 6 8 8 9 10 12 13 12 12 12 13 13 14 15 16 17 17 17 16 16 15 17 19 20 19 19 18 17 17 17 16 17 17 17 15 12 11 11 13 15 16 17 17
13 13 11 10 11 11 11 9 7 7 7 8 10 10 11 12 13 13 13 12 11 11 12 13 14 14 16 16 16 16 15 14 15 17 19 19 19 17 16 16 17 17 17 16 16 16 16 16 15 16 16 17 17 18
12 11 10 10 10 10 8 8 7 7 9 10 11 11 12 13 14 13 12 12 11 12 12 13 14 14 15 15 16 16 16 14 13 15 16 17 17 16 15 15 15 15 15 15 15 15 15 14 14 15 16 17 19 20
12 11 8 8 7 6 7 7 7 8 10 10 12 13 14 14 15 14 13 11 11 11 11 12 14 15 12 15 15 15 17 16 14 14 15 15 15 14 12 12 11 12 13 12 12 11 11 10 11 12 13 17 20 21
8 8 7 6 5 6 7 8 10 10 12 12 13 14 14 15 16 15 14 11 13 13 13 13 14 16 14 14 14 15 16 16 15 14 13 12 9 8 10 11 12 12 12 12 12 11 10 10 10 11 13 17 19 20
Wind_Direction
271 274 277 275 278 277 265 264 266 274 281 297 308 320 331 338 340 337 343 350 348 344 348 350 353 355 357 356 351 1 359 359 359 355 354 353 352 355 354 356 355 354 353 354 356 352 354 15 3 2 351 345 347 360
268 269 274 275 275 274 263 257 261 258 277 283 302 314 313 322 339 339 333 353 2 348 351 10 11 7 4 5 4 3 358 1 5 359 357 358 352 356 354 351 2 354 358 357 357 356 5 3 357 348 352 338 350 1
266 267 267 271 271 278 266 256 256 257 263 277 295 319 322 324 330 334 344 354 357 354 356 358 358 6 9 9 10 359 1 10 5 10 5 359 352 359 353 354 357 1 6 357 356 8 4 356 0 354 339 331 347 360
264 264 266 269 268 277 263 248 249 256 263 266 290 311 318 329 338 340 335 338 348 352 338 342 3 0 9 12 12 12 15 17 17 12 4 359 356 3 357 359 358 2 7 360 355 358 0 8 4 336 327 351 334 329
263 266 266 269 270 273 250 245 240 250 256 264 289 318 338 357 7 5 350 334 342 337 336 347 0 2 9 17 15 20 21 17 10 6 2 1 5 3 3 2 358 8 4 0 358 4 0 358 348 315 331 317 316 313
260 263 266 268 269 263 238 232 232 224 241 261 295 325 21 34 16 342 325 336 346 351 344 340 354 359 5 15 15 15 15 15 10 6 6 8 12 7 1 359 8 18 20 14 3 6 2 358 340 342 328 312 311 306
258 260 262 266 265 250 228 220 226 228 206 211 244 58 353 9 333 325 323 344 0 358 347 345 348 360 7 10 8 9 13 11 8 7 6 8 10 10 3 358 12 20 16 13 10 9 8 10 348 313 317 317 317 321
256 256 259 262 261 235 222 210 206 197 186 153 121 32 19 37 0 334 337 356 355 353 352 344 345 355 3 359 359 10 6 8 7 7 10 6 8 7 2 11 16 18 17 18 19 19 7 1 346 327 335 329 314 324
255 255 256 257 250 217 204 199 194 183 166 157 128 59 331 330 319 329 8 359 355 346 341 347 347 345 8 2 5 9 8 3 7 5 7 8 4 1 8 13 12 17 16 16 19 15 9 2 343 336 327 326 317 316
253 253 253 252 223 205 196 189 177 162 151 140 288 305 305 316 4 7 333 334 335 339 347 347 356 350 2 5 5 7 8 5 1 7 11 4 2 10 17 22 21 23 26 25 18 17 14 2 336 332 331 333 320 316
250 249 249 235 203 194 183 175 167 152 163 270 292 302 319 326 320 325 319 322 330 337 345 352 355 358 9 1 3 10 6 7 1 5 4 2 2 13 26 23 25 28 29 28 27 23 17 9 330 319 317 321 320 318
247 245 238 199 185 177 175 170 161 220 257 276 304 347 310 316 313 314 311 321 326 332 349 351 1 8 12 16 10 11 7 10 1 8 4 1 10 23 23 21 23 28 28 27 28 24 16 4 349 345 335 315 313 310
242 243 193 180 174 173 167 159 184 147 134 279 303 298 305 308 305 303 299 312 321 346 2 12 8 11 17 16 13 10 5 3 9 4 2 6 15 21 18 17 21 29 30 30 26 22 14 360 349 346 329 326 319 314
238 200 171 168 166 169 176 165 151 143 284 282 285 286 293 298 301 309 310 329 340 1 36 27 14 12 18 14 12 6 9 10 3 358 1 10 15 18 23 28 29 29 30 27 25 21 12 358 340 339 340 333 322 315
216 166 161 160 161 161 155 145 161 280 289 282 288 290 289 310 306 322 352 9 22 60 36 22 17 22 17 14 14 12 7 2 2 1 9 15 22 23 25 28 30 30 28 25 23 21 12 358 340 331 332 331 333 326
156 154 167 155 153 150 152 148 248 276 293 297 296 304 306 301 312 331 14 43 55 56 31 21 15 10 10 14 10 7 5 1 4 12 18 22 22 24 25 27 28 29 27 23 19 19 13 1 346 330 326 331 332 333
158 206 153 142 142 139 147 225 272 284 288 288 292 302 290 322 53 42 46 55 71 40 12 23 10 9 22 9 7 9 5 11 15 21 25 25 24 25 27 27 27 28 25 22 19 18 16 4 353 341 326 327 328 334
187 147 146 139 132 168 228 253 281 289 288 284 276 277 308 8 71 40 37 81 50 37 36 23 28 16 11 8 5 11 18 22 25 24 23 24 25 26 26 23 25 24 21 18 15 15 15 15 358 347 337 329 326 330
145 144 140 136 144 198 245 256 270 285 303 301 302 342 8 36 18 37 63 52 28 32 36 23 16 13 9 13 15 23 24 25 22 23 24 25 26 24 23 23 23 21 19 16 11 11 10 13 20 2 347 338 330 329
141 140 136 168 220 241 255 266 291 292 291 306 319 338 3 8 21 47 48 29 31 25 16 12 12 19 22 27 31 27 29 31 26 20 18 21 24 24 20 19 17 16 13 9 5 6 10 9 9 12 12 353 336 332
142 155 180 215 241 278 276 273 285 294 303 288 272 302 328 335 11 25 34 16 21 12 9 22 25 30 34 31 38 34 32 32 25 22 20 19 22 21 17 15 12 10 7 3 357 353 357 6 10 8 5 9 2 343
171 181 206 222 239 261 274 279 298 300 283 277 301 313 329 341 8 23 18 20 4 12 26 26 30 33 32 30 32 37 32 31 26 23 21 18 14 13 11 10 9 7 6 2 353 345 349 359 9 15 9 3 3 360
169 196 216 247 265 265 259 260 277 280 289 263 278 303 319 339 5 7 5 3 8 26 39 38 31 36 27 34 35 31 33 22 16 12 10 8 6 5 4 5 7 6 6 5 353 344 346 355 3 8 11 3 3 1
203 222 235 241 249 257 253 262 274 282 275 266 274 308 353 357 10 355 350 7 20 28 43 36 32 22 20 22 18 15 15 14 6 4 4 2 359 1 5 6 10 11 10 7 358 345 344 352 359 3 9 9 4 4
223 236 236 246 244 262 275 271 269 275 280 279 302 329 351 7 3 353 349 2 25 33 32 33 27 20 17 17 15 12 16 10 3 359 3 4 6 9 9 11 10 9 11 9 4 354 350 354 358 2 6 12 9 4
229 233 236 250 267 289 327 297 284 287 298 299 311 351 358 359 349 350 6 17 28 37 37 34 28 25 18 16 12 11 10 16 13 7 11 17 16 13 11 10 9 10 13 12 6 1 357 357 358 2 5 10 5 358
242 250 257 261 279 299 292 283 291 291 316 10 55 31 360 349 353 7 15 31 27 35 37 39 45 27 20 20 22 21 19 22 20 20 22 22 20 18 16 15 14 15 15 8 4 3 2 0 359 2 3 8 8 3
260 260 276 272 276 279 279 271 297 328 327 359 67 357 12 12 9 18 26 39 35 35 36 37 38 31 26 23 22 24 24 27 26 24 22 22 21 20 19 19 16 13 9 6 7 7 5 4 1 359 358 4 2 358
269 265 267 263 275 288 292 291 309 327 335 91 354 10 18 15 19 26 33 36 38 40 37 29 27 26 24 23 24 24 27 27 20 14 13 12 12 13 16 15 12 8 4 2 359 359 4 8 5 0 357 359 356 352
256 262 272 274 280 293 301 315 328 326 346 3 1 11 17 21 20 26 30 36 36 31 30 25 24 22 15 17 18 20 26 26 21 17 12 10 11 16 18 16 16 14 13 9 3 357 353 352 352 351 350 349 345 340
259 271 283 292 305 306 310 316 326 350 354 1 358 10 17 12 11 17 23 24 27 27 24 19 17 21 19 20 19 18 16 23 24 21 18 17 19 21 24 23 22 21 17 14 10 8 7 6 3 357 351 342 331 320
272 280 288 301 314 317 321 333 346 351 346 352 353 356 360 5 7 13 21 28 26 20 21 21 17 19 28 26 27 26 23 25 28 25 24 23 26 29 31 33 32 27 23 25 24 24 26 26 22 15 2 341 319 304
296 296 305 319 328 320 332 352 340 339 338 344 345 348 354 359 358 7 18 29 24 25 27 28 28 25 30 30 30 29 28 29 30 31 33 34 41 42 35 36 37 39 39 36 33 35 39 36 28 15 357 335 315 302